Regional Weather Roundup
Issued by NWS Little Rock, AR

Home | Current Version | Previous Version | Text Only | Print | Product List | Glossary On
Versions: 1 2 3 4 5 6 7 8 9 10 11 12 13 14 15 16 17 18 19 20 21 22 23 24 25 26 27 28 29 30 31 32 33 34 35 36 37 38 39 40 41 42 43 44 45 46 47 48 49 50
000
ASUS44 KLZK 251405
RWRLZK

WEATHER ROUNDUP FOR ARKANSAS
NATIONAL WEATHER SERVICE LITTLE ROCK AR
900 AM CDT SUN JUN 25 2017

NOTE: "FAIR" INDICATES FEW OR NO CLOUDS BELOW 12,000 FEET WITH NO
SIGNIFICANT WEATHER AND/OR OBSTRUCTIONS TO VISIBILITY.

ARZ001-003-010-029-251500-
NORTHWEST ARKANSAS

CITY           SKY/WX    TMP DP  RH WIND       PRES   REMARKS
FAYETTEVILLE   SUNNY     67  59  75 CALM      30.30S
FORT SMITH     SUNNY     74  59  59 E6        30.27R
HARRISON       MOSUNNY   71  52  50 CALM      30.31R
BENTONVILLE    MOSUNNY   73  55  53 S3        30.31S
SILOAM SPGS    SUNNY     72  55  56 SE5       30.29F
HIGHFILL       MOSUNNY   73  55  53 SE6       30.30S
SPRINGDALE     MOSUNNY   72  57  60 CALM      30.33R
$$

ARZ004-005-016-251500-
NORTH CENTRAL ARKANSAS

CITY           SKY/WX    TMP DP  RH WIND       PRES   REMARKS
BATESVILLE     MOSUNNY   70  57  64 W5        30.27S
FLIPPIN        SUNNY     70  54  56 CALM      30.27S
MTN HOME       MOSUNNY   67  62  84 CALM      30.29R
$$

ARZ040-041-251500-
WEST CENTRAL ARKANSAS

CITY           SKY/WX    TMP DP  RH WIND       PRES   REMARKS
MENA           MOSUNNY   73  66  78 CALM      30.28S
MOUNT IDA      PTSUNNY   71  58  63 SE3       30.25R
$$

ARZ009-017-025-026-028-251500-
NORTHEAST ARKANSAS

CITY           SKY/WX    TMP DP  RH WIND       PRES   REMARKS
CORNING        FAIR      68  61  77 NW3       30.27R
JONESBORO      SUNNY     75  56  51 VRB5      30.25R
WALNUT RIDGE   PTSUNNY   70  55  60 NW5       30.26S
BLYTHEVILLE    SUNNY     75  61  61 CALM      30.25R
$$

ARZ022-023-033-042-044-251500-
CENTRAL ARKANSAS

CITY           SKY/WX    TMP DP  RH WIND       PRES   REMARKS
LITTLE ROCK    MOSUNNY   75  59  57 NE6       30.26R
N LITTLE ROCK    N/A     73  62  68 N5        30.25S
JACKSONVILLE   SUNNY     74  60  60 NE5       30.25S
CONWAY           N/A     73  59  60 CALM      30.25S
SEARCY         SUNNY     73  59  61 N5        30.28R
HOT SPRINGS    MOSUNNY   76  56  49 E9        30.26R
RUSSELLVILLE   SUNNY     73  61  65 CALM      30.26S
CLINTON        FAIR      70  61  73 CALM      30.28R
$$

ARZ036-251500-
EAST ARKANSAS

CITY           SKY/WX    TMP DP  RH WIND       PRES   REMARKS
WEST MEMPHIS   SUNNY     74  61  63 CALM      30.24R
$$

ARZ050-053-066-070-073-251500-
SOUTHWEST ARKANSAS

CITY           SKY/WX    TMP DP  RH WIND       PRES   REMARKS
CAMDEN         SUNNY     77  63  61 NE8       30.24R
TEXARKANA      PTSUNNY   72  65  78 NE7       30.24S
EL DORADO      CLOUDY    73  66  78 E3        30.24R
DE QUEEN       CLOUDY    73  64  73 E3        30.23S
$$

ARZ056-057-069-251500-
SOUTHEAST ARKANSAS

CITY           SKY/WX    TMP DP  RH WIND       PRES   REMARKS
PINE BLUFF     CLOUDY    73  63  70 NE7       30.25S
STUTTGART      MOSUNNY  N/A N/A N/A N7        30.25F
MONTICELLO     CLOUDY    74  64  71 NE7       30.23S

$$





USA.gov is the U.S. government's official web portal to all federal, state and local government web resources and services.